Weather History for KACK - August, 2014

Change the Weather History Date:

Monday, August 11, 2014

  Actual Average Record
Temperature  
Mean Temperature 65 °F -  
Max Temperature 75 °F 75 °F 88 °F (1949)
Min Temperature 57 °F 63 °F 54 °F (1968)
Growing Degree Days 15 (Base 50)    
Moisture  
Dew Point 60 °F    
Average Humidity 86    
Maximum Humidity 100    
Minimum Humidity 55    
Precipitation  
Precipitation 0.01 in - - ()
Sea Level Pressure  
Sea Level Pressure 30.15 in    
Wind  
Wind Speed 2 mph (South)    
Max Wind Speed 10 mph    
Max Gust Speed -    
Visibility 6 miles    
Events Fog    
Averages and records for this station are not official NWS values.
T = Trace of Precipitation, MM = Missing Value Source: NWS Daily Summary

Daily Weather History Graph

Daily Weather History Graph

Search for Another Location

Airport or City:

Trip Planner

Search our weather history database for the weather conditions in past years. The results will help you decide how hot, cold, wet, or windy it might be!

Date:

Astronomy

Aug. 11, 2014 Rise Set
Actual Time 5:45 AM EDT 7:44 PM EDT
Civil Twilight 5:15 AM EDT 8:14 PM EDT
Nautical Twilight 4:38 AM EDT 8:51 PM EDT
Astronomical Twilight 3:58 AM EDT 9:30 PM EDT
Moon 8:09 PM EDT (8/11) 6:47 AM EDT (8/11)
Length of Visible Light 14h 59m
Length of Day
13h 59m
Full, 99% of the Moon is Illuminated
Aug 11
Full
Aug 17
Last Quarter
Aug 25
New
Sep 2
First Quarter
Sep 8
Full

Hourly Weather History & Observations

Time (EDT) Temp. Dew Point Humidity Pressure Visibility Wind Dir Wind Speed Gust Speed Precip Events Conditions
12:53 AM 62.1 °F 61.0 °F 96% 30.15 in 4.0 mi Calm Calm - N/A   Scattered Clouds
12:56 AM 62.6 °F 60.8 °F 94% 30.15 in 1.5 mi Calm Calm - N/A   Scattered Clouds
1:12 AM 62.6 °F 59.0 °F 88% 30.14 in 2.0 mi SE 3.5 mph - N/A   Mostly Cloudy
1:17 AM 60.8 °F 59.0 °F 94% 30.15 in 0.8 mi Calm Calm - N/A   Mostly Cloudy
1:27 AM 60.8 °F 60.8 °F 100% 30.15 in 0.2 mi Calm Calm - N/A Fog Fog
1:34 AM 60.8 °F 60.8 °F 100% 30.15 in 0.2 mi Calm Calm - N/A Fog Fog
1:53 AM 61.0 °F 60.1 °F 97% 30.15 in 1.5 mi Calm Calm - N/A   Overcast
2:03 AM 60.8 °F 60.8 °F 100% 30.15 in 0.8 mi Calm Calm - N/A   Overcast
2:09 AM 60.8 °F 60.8 °F 100% 30.14 in 2.0 mi South 4.6 mph - N/A   Overcast
2:30 AM 62.6 °F 62.6 °F 100% 30.14 in 0.8 mi SSW 3.5 mph - N/A   Mist
2:33 AM 62.6 °F 62.6 °F 100% 30.14 in 0.2 mi Calm Calm - N/A Fog Fog
2:42 AM 62.6 °F 62.6 °F 100% 30.14 in 0.2 mi SW 3.5 mph - N/A Fog Fog
2:53 AM 63.0 °F 63.0 °F 100% 30.14 in 0.2 mi Calm Calm - N/A Fog Fog
3:53 AM 62.1 °F 61.0 °F 96% 30.15 in 0.2 mi Calm Calm - N/A Fog Fog
4:11 AM 62.6 °F 60.8 °F 94% 30.15 in 0.2 mi Calm Calm - N/A Fog Fog
4:36 AM 60.8 °F 59.0 °F 94% 30.15 in 1.0 mi Calm Calm - N/A   Overcast
4:46 AM 60.8 °F 59.0 °F 94% 30.15 in 1.5 mi Calm Calm - N/A   Mostly Cloudy
4:53 AM 57.9 °F 57.0 °F 97% 30.15 in 1.8 mi Calm Calm - 0.01 in   Scattered Clouds
4:59 AM 57.2 °F 57.2 °F 100% 30.15 in 3.0 mi Calm Calm - N/A   Partly Cloudy
5:53 AM 57.9 °F 55.9 °F 93% 30.16 in 10.0 mi Calm Calm - N/A   Partly Cloudy
6:53 AM 64.0 °F 61.0 °F 90% 30.16 in 10.0 mi Calm Calm - N/A   Clear
7:53 AM 71.1 °F 59.0 °F 66% 30.17 in 10.0 mi Calm Calm - N/A   Scattered Clouds
8:53 AM 73.0 °F 55.9 °F 55% 30.17 in 10.0 mi ESE 6.9 mph - N/A   Partly Cloudy
9:53 AM 73.0 °F 57.0 °F 57% 30.17 in 10.0 mi SSE 5.8 mph - N/A   Partly Cloudy
10:53 AM 72.0 °F 57.9 °F 61% 30.17 in 10.0 mi SE 6.9 mph - N/A   Clear
11:53 AM 72.0 °F 57.9 °F 61% 30.17 in 10.0 mi SSE 9.2 mph - N/A   Clear
12:53 PM 70.0 °F 60.1 °F 71% 30.17 in 10.0 mi South 6.9 mph - N/A   Overcast
1:53 PM 71.1 °F 57.0 °F 61% 30.18 in 10.0 mi South 9.2 mph - N/A   Mostly Cloudy
2:53 PM 71.1 °F 57.0 °F 61% 30.17 in 10.0 mi SSE 10.4 mph - N/A   Mostly Cloudy
3:53 PM 70.0 °F 57.0 °F 63% 30.16 in 10.0 mi South 8.1 mph - N/A   Clear
4:53 PM 70.0 °F 60.1 °F 71% 30.15 in 10.0 mi South 8.1 mph - N/A   Clear
5:53 PM 69.1 °F 61.0 °F 75% 30.14 in 10.0 mi South 8.1 mph - N/A   Clear
6:53 PM 66.9 °F 60.1 °F 79% 30.14 in 10.0 mi SSE 5.8 mph - N/A   Clear
7:53 PM 64.0 °F 61.0 °F 90% 30.15 in 10.0 mi South 5.8 mph - N/A   Clear
8:53 PM 63.0 °F 60.1 °F 90% 30.15 in 10.0 mi South 4.6 mph - N/A   Clear
9:53 PM 63.0 °F 60.1 °F 90% 30.16 in 10.0 mi South 4.6 mph - N/A   Clear
10:53 PM 62.1 °F 60.1 °F 93% 30.15 in 10.0 mi South 5.8 mph - N/A   Clear
11:53 PM 63.0 °F 60.1 °F 90% 30.15 in 10.0 mi South 5.8 mph - N/A   Clear